GEFSNGP_con_prob3kmehi_174.txt.gz
EHI
0 0 0 0 0 0 0 0 0 2 9 17 26 40 54 59 60 62 67 72 76 76 75 69 60 53 48 44 38 35 33 29 24 21 20 19 18 18 17 15 14 14 13 11
0 0 0 0 0 0 0 0 1 4 12 22 32 46 58 61 61 65 69 73 75 75 73 69 60 52 48 44 41 38 34 28 22 19 17 16 16 16 15 13 12 11 11 10
0 0 0 0 0 0 1 2 4 8 16 26 38 50 61 65 65 68 73 75 75 74 70 66 60 53 48 44 41 39 33 26 20 16 14 13 13 12 11 11 10 10 9 9
0 0 0 0 0 0 3 7 11 14 19 26 37 47 57 65 68 71 76 76 74 71 66 61 58 53 47 42 39 35 30 23 17 13 12 11 10 8 9 10 10 10 8 7
0 0 0 0 0 0 3 10 19 23 24 27 34 42 52 61 67 72 77 76 71 66 61 57 54 51 46 42 38 33 27 20 15 13 12 10 8 7 8 10 11 9 7 6
0 0 0 1 1 0 3 14 26 31 31 33 36 44 56 65 68 71 74 72 66 61 58 55 52 49 46 40 35 29 24 19 16 14 11 9 7 6 7 9 8 6 5 4
0 0 2 5 5 7 15 28 37 39 40 45 50 58 69 75 74 72 71 67 63 61 59 55 50 47 43 36 29 24 20 17 13 11 8 5 4 3 4 5 4 4 3 2
1 4 12 19 19 24 37 45 47 46 46 51 58 66 74 77 75 73 68 62 59 58 56 51 45 41 36 28 22 18 15 11 8 6 3 1 1 1 1 1 1 2 1 1
8 13 25 34 36 39 45 46 45 43 42 47 53 62 70 73 72 68 62 55 51 50 48 43 38 33 26 20 15 12 9 6 3 2 1 0 0 0 0 0 0 0 0 0
17 20 29 36 38 37 36 36 36 35 34 38 48 59 67 69 66 60 52 45 43 42 40 35 30 25 19 13 10 8 5 3 2 1 0 0 0 0 0 0 0 0 0 0
20 21 24 26 27 27 26 27 31 33 32 34 44 56 61 60 55 48 41 37 36 34 31 26 22 18 13 8 6 5 3 1 1 1 0 0 0 0 0 0 0 0 0 0
18 19 19 18 18 18 19 21 28 33 33 33 40 48 51 49 43 37 32 29 27 24 20 17 15 12 8 6 5 3 2 1 0 0 0 0 0 0 0 0 0 0 0 0
15 16 16 15 14 15 15 18 24 30 32 32 36 41 41 38 33 29 25 22 19 15 11 9 9 6 5 5 5 4 2 1 0 0 0 0 0 0 0 0 0 0 0 0
10 12 14 14 13 13 14 17 22 26 27 29 33 35 32 28 24 21 18 15 12 9 7 6 5 3 2 3 4 3 1 0 0 0 0 0 0 0 0 0 0 0 0 0
5 7 11 12 10 10 13 16 19 21 22 25 28 26 22 19 17 14 12 9 8 7 6 5 3 1 0 1 2 1 0 0 0 0 0 0 0 0 0 0 0 0 0 0
2 4 6 8 7 7 9 12 14 16 18 21 21 18 15 13 11 9 7 6 6 6 5 4 2 1 0 0 0 0 0 0 0 0 0 0 0 0 0 0 0 0 0 0
2 2 4 5 6 6 7 9 10 13 15 17 15 12 10 8 7 5 4 4 3 3 3 2 1 0 0 0 0 0 0 0 0 0 0 0 0 0 0 0 0 0 0 0
1 2 3 5 7 7 7 8 9 10 11 12 11 9 7 5 3 3 2 2 1 1 1 1 0 0 0 0 0 0 0 0 0 0 0 0 0 0 0 0 0 0 0 0
0 1 2 4 7 8 8 8 8 9 7 6 7 7 5 3 1 1 1 1 0 0 0 0 0 0 0 0 0 0 0 0 0 0 0 0 0 0 0 0 0 0 0 0
0 0 1 2 3 5 6 6 6 6 4 3 4 5 4 3 1 0 0 0 0 0 0 0 0 0 0 0 0 0 0 0 0 0 0 0 0 0 0 0 0 0 0 0
0 0 1 1 1 1 3 3 3 3 3 2 2 3 4 3 1 0 0 0 0 0 0 0 0 0 0 0 0 0 0 0 0 0 0 0 0 0 0 0 0 0 0 0
1 2 2 2 0 0 1 2 3 3 3 2 2 3 3 3 1 0 0 0 0 0 0 0 0 0 0 0 0 0 0 0 0 0 0 0 0 0 0 0 0 0 0 0
1 3 4 2 1 0 1 3 3 3 2 1 1 2 3 2 1 0 0 0 0 0 0 0 0 0 0 0 0 0 0 0 0 0 0 0 0 0 0 0 0 0 0 0
2 3 4 4 4 3 3 3 3 2 1 1 1 1 1 2 1 0 0 0 0 0 0 0 0 0 0 0 0 0 0 0 0 0 0 0 0 0 0 0 0 0 0 0
4 4 4 5 6 5 4 3 2 1 0 0 0 0 0 1 1 0 0 0 0 0 0 0 0 0 0 0 0 0 0 0 0 0 0 0 0 0 0 0 0 0 0 0
4 3 3 3 3 3 3 2 1 0 0 0 0 0 0 0 0 0 0 0 0 0 0 0 0 0 0 0 0 0 0 0 0 0 0 0 0 0 0 0 0 0 0 0
2 1 1 1 1 1 1 1 1 0 0 0 0 0 0 0 0 0 0 0 0 0 0 0 0 0 0 0 0 0 0 0 0 0 0 0 0 0 0 0 0 0 0 0

GEFSNGP_con_prob3kmehi_180.txt.gz
EHI
0 0 0 0 0 0 0 0 1 4 6 12 25 41 49 51 49 46 44 45 45 42 36 30 26 22 19 18 18 16 14 11 10 9 9 8 6 4 4 4 4 3 3 3
0 0 0 0 1 1 1 0 2 6 10 16 31 47 55 56 54 49 46 46 45 43 36 29 25 21 17 17 18 16 13 10 8 8 8 7 5 4 3 3 3 3 3 3
0 0 0 0 2 4 5 5 6 10 15 25 40 54 61 61 60 56 51 47 45 41 35 29 24 20 18 18 18 16 13 11 9 8 7 6 4 3 2 2 3 3 3 3
0 0 0 0 1 4 7 11 15 19 26 38 50 59 62 61 62 61 56 49 42 39 34 29 24 21 20 21 19 16 13 12 11 9 7 5 3 3 1 1 2 2 2 2
0 0 0 0 2 4 8 14 22 30 39 52 62 63 58 56 59 60 54 46 40 37 36 33 27 21 19 19 16 13 11 11 10 9 7 4 2 2 1 0 1 1 1 1
0 0 0 2 4 5 8 15 25 35 47 58 64 59 51 50 54 56 50 44 40 38 36 33 27 21 17 14 12 10 9 8 8 6 4 2 1 1 0 0 0 0 0 0
0 0 1 4 7 5 8 18 28 37 46 53 52 47 47 50 53 53 49 44 40 36 30 24 22 20 16 12 9 8 7 5 4 3 1 0 0 0 0 0 0 0 0 0
0 0 1 4 7 6 11 25 34 37 41 45 45 47 52 56 55 52 47 41 35 30 22 16 17 18 15 11 7 6 5 3 1 1 0 0 0 0 0 0 0 0 0 0
3 3 5 7 8 10 19 32 38 36 38 44 49 53 55 55 51 46 41 35 29 24 19 15 14 14 11 8 6 5 3 2 1 0 0 0 0 0 0 0 0 0 0 0
7 9 11 13 15 18 25 33 38 38 39 45 51 53 51 46 41 38 35 30 25 22 18 13 11 9 6 4 4 3 2 1 0 0 0 0 0 0 0 0 0 0 0 0
7 9 13 17 20 23 26 30 35 37 37 39 44 45 43 38 33 30 28 24 22 19 14 8 5 4 2 1 1 2 1 0 0 0 0 0 0 0 0 0 0 0 0 0
4 6 10 14 18 20 21 23 26 29 29 30 34 37 36 33 29 26 22 18 15 13 8 3 1 1 0 0 0 0 0 0 0 0 0 0 0 0 0 0 0 0 0 0
2 5 8 10 12 15 15 16 18 21 23 25 28 32 32 29 26 22 18 13 10 8 4 1 0 0 0 0 0 0 0 0 0 0 0 0 0 0 0 0 0 0 0 0
1 3 6 7 9 10 12 12 14 16 18 20 24 27 27 25 20 16 12 9 7 5 3 1 0 0 0 0 0 0 0 0 0 0 0 0 0 0 0 0 0 0 0 0
0 1 2 5 8 9 10 11 12 12 11 12 16 20 20 17 13 9 5 4 4 3 1 0 0 0 0 0 0 0 0 0 0 0 0 0 0 0 0 0 0 0 0 0
0 0 1 3 5 8 9 9 9 8 6 6 9 12 11 9 7 4 1 1 2 1 0 0 0 0 0 0 0 0 0 0 0 0 0 0 0 0 0 0 0 0 0 0
0 0 0 1 2 4 6 6 6 5 3 4 5 6 5 4 3 2 0 0 0 0 0 0 0 0 0 0 0 0 0 0 0 0 0 0 0 0 0 0 0 0 0 0
0 0 0 0 0 2 3 4 3 2 2 3 3 2 3 3 3 2 1 0 0 0 0 0 0 0 0 0 0 0 0 0 0 0 0 0 0 0 0 0 0 0 0 0
0 0 0 0 0 1 3 3 2 2 3 3 3 3 3 3 2 2 1 0 0 0 0 0 0 0 0 0 0 0 0 0 0 0 0 0 0 0 0 0 0 0 0 0
0 0 0 0 0 1 2 4 3 2 3 3 3 2 2 1 1 1 1 0 0 0 0 0 0 0 0 0 0 0 0 0 0 0 0 0 0 0 0 0 0 0 0 0
0 0 0 0 0 1 2 4 3 2 3 3 1 1 1 0 0 0 0 0 0 0 0 0 0 0 0 0 0 0 0 0 0 0 0 0 0 0 0 0 0 0 0 0
0 0 0 1 1 1 2 1 1 1 2 2 1 0 0 0 0 0 0 0 0 0 0 0 0 0 0 0 0 0 0 0 0 0 0 0 0 0 0 0 0 0 0 0
0 0 0 1 1 1 1 0 0 1 2 1 0 0 0 0 0 0 0 0 0 0 0 0 0 0 0 0 0 0 0 0 0 0 0 0 0 0 0 0 0 0 0 0
0 0 0 1 1 0 0 0 1 2 2 1 0 0 0 0 0 0 0 0 0 0 0 0 0 0 0 0 0 0 0 0 0 0 0 0 0 0 0 0 0 0 0 0
0 0 0 0 0 0 0 1 2 2 2 1 0 0 0 0 0 0 0 0 0 0 0 0 0 0 0 0 0 0 0 0 0 0 0 0 0 0 0 0 0 0 0 0
0 0 0 0 0 0 0 1 2 1 1 0 0 0 0 0 0 0 0 0 0 0 0 0 0 0 0 0 0 0 0 0 0 0 0 0 0 0 0 0 0 0 0 0
0 0 0 0 0 0 0 1 1 0 0 0 0 0 0 0 0 0 0 0 0 0 0 0 0 0 0 0 0 0 0 0 0 0 0 0 0 0 0 0 0 0 0 0

GEFSNGP_con_prob3kmehi_186.txt.gz
EHI
0 0 0 0 0 0 0 0 0 0 0 0 1 6 15 23 27 29 25 20 18 15 13 13 12 12 11 9 7 7 5 4 3 2 1 1 1 0 0 0 0 0 0 0
0 0 0 0 0 0 0 0 0 0 0 0 3 11 21 28 32 30 27 24 20 16 14 13 13 13 12 11 9 8 7 5 4 4 3 2 1 0 0 0 0 0 0 0
0 0 0 0 0 0 1 0 0 0 1 2 6 14 25 33 35 34 32 27 22 17 15 13 12 12 12 11 10 8 7 7 8 8 6 4 1 0 0 0 0 0 0 0
0 0 0 0 0 0 0 0 1 2 5 8 12 18 25 31 36 38 35 28 22 17 13 11 9 9 10 10 9 7 7 8 9 9 8 5 1 0 0 0 0 0 0 0
0 0 0 0 0 0 0 0 3 6 11 17 22 24 23 26 34 37 32 26 20 15 12 9 7 7 9 10 9 6 6 7 8 8 8 5 1 0 0 0 0 0 0 0
0 0 0 0 1 1 1 0 4 9 16 24 26 21 19 26 33 33 28 24 20 16 12 9 7 7 9 9 8 6 5 5 6 7 7 4 1 0 0 0 0 0 0 0
0 0 0 1 3 2 1 1 5 11 19 25 22 14 18 29 33 31 27 22 19 17 13 10 7 6 8 8 7 5 4 4 5 6 5 3 1 0 0 0 0 0 0 0
0 0 0 2 5 4 2 3 8 13 19 23 20 16 22 32 34 31 26 20 17 15 11 7 4 4 5 6 5 4 3 3 3 4 3 1 0 0 0 0 0 0 0 0
1 1 2 4 6 5 4 6 10 14 18 21 22 22 26 32 33 31 25 18 15 12 8 4 2 1 2 3 3 3 3 3 3 2 1 0 0 0 0 0 0 0 0 0
4 5 6 7 6 5 6 9 12 15 17 19 23 25 27 31 32 28 22 17 14 10 6 3 1 0 0 1 1 1 2 2 1 1 0 0 0 0 0 0 0 0 0 0
4 5 7 7 5 5 7 10 14 16 17 18 22 24 25 28 27 23 18 14 10 6 4 2 1 0 0 0 0 0 1 1 0 0 0 0 0 0 0 0 0 0 0 0
2 2 3 3 2 4 6 9 13 17 19 20 20 21 23 25 22 18 14 10 6 3 2 1 0 0 0 0 0 0 0 0 0 0 0 0 0 0 0 0 0 0 0 0
0 0 0 0 0 2 4 8 12 17 21 22 21 22 24 23 20 15 10 6 4 2 1 0 0 0 0 0 0 0 0 0 0 0 0 0 0 0 0 0 0 0 0 0
0 0 0 0 0 0 2 7 11 15 20 21 19 20 22 20 15 10 6 3 2 2 1 0 0 0 0 0 0 0 0 0 0 0 0 0 0 0 0 0 0 0 0 0
0 0 0 0 0 0 2 5 8 12 15 16 14 13 15 14 9 5 2 1 1 1 0 0 0 0 0 0 0 0 0 0 0 0 0 0 0 0 0 0 0 0 0 0
0 0 0 0 0 1 2 3 5 8 11 11 8 7 7 6 4 2 1 0 0 0 0 0 0 0 0 0 0 0 0 0 0 0 0 0 0 0 0 0 0 0 0 0
0 0 0 1 1 1 1 2 3 4 7 7 6 4 3 2 2 1 0 0 0 0 0 0 0 0 0 0 0 0 0 0 0 0 0 0 0 0 0 0 0 0 0 0
0 0 0 1 2 2 1 1 1 1 2 4 4 3 2 1 1 1 0 0 0 0 0 0 0 0 0 0 0 0 0 0 0 0 0 0 0 0 0 0 0 0 0 0
0 0 0 0 1 2 1 0 0 0 0 1 2 3 2 1 0 0 0 0 0 0 0 0 0 0 0 0 0 0 0 0 0 0 0 0 0 0 0 0 0 0 0 0
0 0 0 0 0 1 1 0 0 0 0 0 1 1 1 1 0 0 0 0 0 0 0 0 0 0 0 0 0 0 0 0 0 0 0 0 0 0 0 0 0 0 0 0
0 0 0 0 0 0 0 0 0 0 0 0 0 0 1 1 1 0 0 0 0 0 0 0 0 0 0 0 0 0 0 0 0 0 0 0 0 0 0 0 0 0 0 0
0 0 0 0 0 0 0 0 0 0 0 0 0 0 1 2 2 1 0 0 0 0 0 0 0 0 0 0 0 0 0 0 0 0 0 0 0 0 0 0 0 0 0 0
0 0 0 0 0 0 0 0 0 0 0 0 0 0 0 1 2 1 0 0 0 0 0 0 0 0 0 0 0 0 0 0 0 0 0 0 0 0 0 0 0 0 0 0
0 0 0 0 0 0 0 0 0 0 0 0 0 0 0 0 1 1 0 0 0 0 0 0 0 0 0 0 0 0 0 0 0 0 0 0 0 0 0 0 0 0 0 0
0 0 0 0 0 0 0 0 0 0 0 0 0 0 0 0 1 1 1 0 0 0 0 0 0 0 0 0 0 0 0 0 0 0 0 0 0 0 0 0 0 0 0 0
0 0 0 0 0 0 0 0 0 0 0 0 0 0 0 0 1 1 1 0 0 0 0 0 0 0 0 0 0 0 0 0 0 0 0 0 0 0 0 0 0 0 0 0
0 0 0 0 0 0 0 0 0 0 0 0 0 0 0 0 0 1 0 0 0 0 0 0 0 0 0 0 0 0 0 0 0 0 0 0 0 0 0 0 0 0 0 0

GEFSNGP_con_prob3kmehi_192.txt.gz
EHI
0 0 0 0 0 0 0 0 0 0 0 2 6 12 17 27 40 49 53 54 57 62 66 65 60 52 43 37 34 32 28 23 22 20 18 16 16 15 12 10 8 7 6 5
0 0 0 0 0 0 0 0 0 0 1 4 10 17 23 32 43 53 58 57 58 63 67 66 60 52 45 39 37 35 31 25 22 19 16 14 14 12 10 8 6 5 4 4
0 0 0 0 0 0 0 0 0 1 2 8 16 22 28 37 48 58 62 62 60 62 64 61 56 50 45 41 38 36 33 27 23 20 16 13 11 9 7 5 4 3 3 3
0 0 0 0 0 1 1 1 2 3 6 12 19 24 29 39 50 58 62 64 63 60 57 55 52 48 45 40 36 33 31 27 23 19 15 12 9 7 5 4 3 3 3 3
0 0 0 0 1 2 2 3 6 8 11 17 20 21 28 42 54 58 61 66 67 61 56 55 51 47 43 39 34 30 28 25 20 16 14 11 9 7 6 5 4 3 3 3
0 0 0 0 2 2 2 5 13 16 18 21 22 23 34 51 60 61 63 69 70 66 61 57 52 46 42 39 34 30 26 23 19 16 14 12 9 7 6 6 5 4 3 3
0 0 0 2 4 5 7 15 23 26 25 26 29 34 44 56 62 64 67 71 72 68 62 56 51 46 43 40 35 30 25 22 19 16 13 11 8 7 6 6 6 5 4 4
0 0 2 6 11 16 22 31 35 34 31 31 37 43 47 54 61 65 69 71 70 65 59 52 47 44 42 38 32 27 23 20 16 13 10 8 7 6 6 6 6 5 4 3
4 4 7 14 23 31 38 41 43 40 34 33 37 41 46 53 59 64 68 69 66 60 55 48 43 40 38 34 29 24 20 16 12 9 7 6 6 5 4 4 4 4 3 2
11 10 13 20 30 37 40 43 44 43 37 32 34 38 45 53 58 61 64 64 60 56 51 45 39 36 33 29 26 22 17 12 8 7 7 7 6 4 3 3 3 3 2 1
15 17 19 24 31 34 35 39 46 47 40 34 33 36 41 49 53 55 56 55 52 49 46 40 35 31 27 23 21 18 14 10 8 7 8 7 6 3 2 2 2 1 1 0
14 18 22 26 30 32 33 38 46 47 43 38 35 34 37 44 48 47 46 46 45 42 39 36 32 26 21 17 14 12 10 8 8 8 8 7 5 3 1 1 1 0 0 0
13 16 19 23 28 32 35 38 41 42 40 37 34 32 35 41 42 40 39 40 40 37 33 30 26 20 15 11 9 8 7 6 6 6 6 5 5 3 1 0 0 0 0 0
11 14 17 20 25 29 31 32 33 32 33 31 28 28 33 37 38 35 34 35 34 31 27 22 17 12 9 6 5 5 4 3 3 3 3 4 4 2 1 0 0 0 0 0
7 10 14 16 18 20 22 23 24 24 25 25 24 24 27 31 32 31 30 28 27 24 20 15 9 5 3 2 1 2 2 1 1 1 1 2 2 1 0 0 0 0 0 0
4 5 8 10 10 11 14 16 18 18 20 21 22 21 21 23 25 27 27 25 23 19 15 10 5 1 1 0 0 0 1 0 0 0 0 1 1 0 0 0 0 0 0 0
1 2 3 3 3 4 8 12 13 14 15 17 18 18 18 18 20 22 24 23 20 15 11 7 2 0 0 0 0 0 0 0 0 0 0 0 0 0 0 0 0 0 0 0
0 0 0 0 0 1 3 6 8 9 10 12 13 15 16 16 17 19 20 19 16 12 8 4 1 0 0 0 0 0 0 0 0 0 0 0 0 0 0 0 0 0 0 0
0 0 0 0 0 0 1 2 3 4 6 8 9 12 13 13 13 14 15 14 12 10 7 3 0 0 0 0 0 0 0 0 0 0 0 0 0 0 0 0 0 0 0 0
0 0 0 0 0 0 0 1 1 2 3 5 6 8 9 10 10 10 11 11 11 9 6 2 0 0 0 0 0 0 0 0 0 0 0 0 0 0 0 0 0 0 0 0
0 0 0 0 0 0 0 0 0 1 1 2 3 4 6 7 7 7 7 8 8 7 5 2 0 0 0 0 0 0 0 0 0 0 0 0 0 0 0 0 0 0 0 0
0 0 0 0 0 0 0 0 0 0 0 1 1 2 3 4 4 4 3 4 3 3 1 0 0 0 0 0 0 0 0 0 0 0 0 0 0 0 0 0 0 0 0 0
1 1 0 0 0 0 0 0 0 0 0 1 1 1 1 2 2 1 1 1 0 0 0 0 0 0 0 0 0 0 0 0 0 0 0 0 0 0 0 0 0 0 0 0
2 1 0 0 0 0 0 0 0 0 0 1 1 0 1 1 1 0 0 0 0 0 0 0 0 0 0 0 0 0 0 0 0 0 0 0 0 0 0 0 0 0 0 0
1 1 0 0 0 0 0 0 0 0 0 0 0 0 1 1 0 0 0 0 0 0 0 0 0 0 0 0 0 0 0 0 0 0 0 0 0 0 0 0 0 0 0 0
0 0 0 0 0 0 0 0 0 0 0 0 0 0 0 0 0 0 0 0 0 0 0 0 0 0 0 0 0 0 0 0 0 0 0 0 0 0 0 0 0 0 0 0
0 0 0 0 0 0 0 0 0 0 0 0 0 0 0 0 0 0 0 0 0 0 0 0 0 0 0 0 0 0 0 0 0 0 0 0 0 0 0 0 0 0 0 0

GEFSNGP_con_prob3kmehi_198.txt.gz
EHI
0 0 0 0 0 0 0 0 0 1 4 10 17 26 37 48 57 64 69 70 73 79 82 81 78 74 69 67 64 62 58 53 47 41 34 30 29 26 22 20 17 14 11 9
0 0 0 0 0 0 0 0 0 1 6 13 21 31 44 53 61 69 73 75 77 80 82 81 79 76 73 70 67 63 57 51 46 41 36 32 30 28 24 20 17 13 10 7
0 0 0 0 0 0 0 0 0 3 8 17 28 41 53 60 67 74 78 80 82 82 82 81 79 78 76 72 68 63 55 50 46 43 39 35 32 28 23 18 15 11 8 6
0 0 0 0 1 1 1 2 4 7 11 20 32 44 55 64 70 77 81 84 86 86 83 80 79 78 76 72 67 61 54 48 46 44 40 34 29 24 19 16 12 9 7 6
0 0 0 1 2 2 3 5 10 14 18 23 30 39 53 66 73 80 84 86 88 87 83 80 79 79 76 71 66 59 51 45 43 41 35 29 24 20 17 15 11 8 6 6
0 0 0 2 3 3 4 9 16 22 26 30 34 41 57 73 79 81 84 85 85 86 84 82 81 79 75 71 65 56 46 41 37 34 29 23 19 17 16 13 9 7 6 6
0 0 3 6 8 10 16 24 29 33 35 41 49 58 69 80 84 83 84 83 84 86 86 84 82 79 75 70 63 54 45 39 33 29 24 19 16 16 14 11 7 6 6 6
3 6 13 19 23 28 38 43 43 42 43 50 63 72 77 81 84 84 83 83 84 84 82 80 79 77 73 68 60 53 46 38 31 27 22 17 17 16 12 8 6 5 4 4
13 18 27 35 41 46 48 49 47 44 45 52 63 72 75 77 80 80 79 80 81 79 75 73 72 71 69 64 59 52 46 38 31 26 22 19 16 13 9 6 5 4 3 3
24 26 31 37 42 44 44 43 42 41 42 48 56 63 68 71 73 72 72 73 75 74 70 67 64 63 61 60 55 49 42 36 29 24 21 18 14 9 6 5 3 3 3 3
26 27 28 28 30 33 35 37 37 38 41 47 52 58 62 66 68 67 67 68 69 68 67 63 59 56 55 53 49 43 36 31 26 20 16 14 10 6 4 2 1 2 2 2
28 28 27 23 21 24 30 33 34 35 41 48 53 55 57 60 63 63 65 67 66 65 63 60 55 53 51 47 42 38 32 27 22 16 12 9 7 5 3 1 0 1 1 1
34 30 25 21 19 22 29 33 34 35 38 44 49 51 53 55 59 60 61 62 62 60 57 54 52 51 49 43 37 34 30 24 19 15 10 6 4 5 4 2 1 0 0 0
30 27 22 19 21 25 30 34 35 33 34 40 46 48 48 51 54 54 54 54 53 52 48 45 46 47 46 41 36 32 27 21 17 13 9 5 4 5 5 3 2 1 0 0
19 19 18 17 20 24 28 31 32 30 31 36 42 43 42 44 47 48 47 47 46 44 42 41 42 42 40 36 33 29 22 17 15 12 9 5 3 4 4 3 2 1 0 0
12 14 15 16 17 19 22 25 26 26 27 30 34 38 38 38 41 42 40 40 41 42 43 43 42 39 34 29 27 23 17 12 10 10 8 4 2 1 1 1 1 0 0 0
9 10 12 14 14 13 14 17 20 21 21 23 26 30 33 33 35 36 33 32 36 42 45 44 41 35 28 22 19 16 11 8 7 7 6 4 1 0 0 0 0 0 0 0
6 8 9 10 10 9 9 10 12 13 15 17 20 23 25 27 29 31 29 29 32 37 41 39 32 25 21 17 13 10 8 6 6 6 5 4 2 0 0 0 0 0 0 0
6 7 6 7 7 6 6 6 8 8 9 12 15 16 18 20 24 27 28 27 28 32 35 32 23 18 16 13 10 8 6 5 4 4 4 3 1 0 0 0 0 0 0 0
6 5 5 4 4 5 5 5 6 6 6 8 10 11 12 13 17 20 21 21 23 27 28 24 19 18 15 10 7 6 5 4 3 3 3 1 0 0 0 0 0 0 0 0
2 3 4 4 4 4 5 5 4 4 4 4 5 6 6 7 9 12 12 11 14 18 18 14 13 14 12 8 5 5 5 4 3 3 1 0 0 0 0 0 0 0 0 0
0 0 1 3 4 5 5 4 3 2 2 2 3 3 3 3 4 5 5 5 6 8 9 8 6 7 7 6 5 4 4 3 3 2 1 0 0 0 0 0 0 0 0 0
1 1 2 4 5 5 3 2 1 1 1 1 2 2 1 1 1 1 1 2 3 3 5 5 3 2 2 4 4 4 3 3 3 1 0 0 0 0 0 0 0 0 0 0
3 3 5 6 4 2 1 0 0 1 1 1 2 1 0 0 0 1 2 2 1 1 1 2 1 0 0 1 2 2 2 2 2 1 0 0 0 0 0 0 0 0 0 0
5 5 6 5 3 1 0 0 0 0 0 1 1 1 0 0 1 2 3 2 0 0 0 0 0 0 0 0 0 1 1 1 1 0 0 0 0 0 0 0 0 0 0 0
6 5 5 3 1 0 0 0 0 0 0 1 1 1 0 1 2 3 3 1 0 0 0 0 0 0 0 0 0 0 0 0 0 0 0 0 0 0 0 0 0 0 0 0
6 4 2 1 0 0 0 0 0 0 0 1 2 1 1 2 3 3 2 1 0 0 0 0 0 0 0 0 0 0 0 0 0 0 0 0 0 0 0 0 0 0 0 0

GEFSNGP_con_prob3kmehi_204.txt.gz
EHI
0 0 0 0 0 0 1 2 1 1 2 5 12 22 34 42 46 47 48 49 52 55 56 54 53 55 53 48 46 45 40 33 27 21 17 14 12 9 5 3 4 5 6 5
0 0 0 0 0 0 1 2 2 3 5 9 16 27 38 46 48 48 50 53 56 58 59 57 55 56 55 50 47 46 40 33 27 21 18 14 10 6 3 2 2 4 5 5
0 0 0 0 1 1 2 2 4 7 11 16 23 32 43 49 51 50 52 57 62 63 62 60 57 57 57 53 49 46 40 33 27 22 18 11 6 3 1 0 1 2 3 3
0 0 0 1 2 3 4 5 7 11 18 25 32 39 47 52 54 53 52 57 63 66 66 64 62 61 59 54 50 45 38 31 25 22 16 9 5 4 2 1 1 1 1 1
0 0 0 1 3 5 8 11 13 17 26 34 41 46 49 53 56 55 52 56 62 67 69 69 68 66 59 53 47 41 35 27 22 19 14 8 6 5 4 2 1 1 1 2
0 0 1 3 6 8 9 14 19 24 30 38 45 48 49 52 58 59 58 60 64 67 68 67 66 63 57 50 42 35 30 23 19 15 10 6 6 5 4 3 2 2 3 3
0 0 2 6 10 9 9 14 22 29 33 38 44 47 49 53 60 65 67 68 69 67 63 60 60 59 52 44 35 28 24 20 16 12 8 5 4 4 3 2 2 3 3 3
0 0 2 8 12 10 12 20 31 38 40 41 45 48 51 53 58 66 72 74 72 66 58 54 56 55 47 38 30 25 22 19 15 12 9 6 4 3 1 1 2 3 3 3
2 2 4 8 12 13 18 28 38 44 46 47 48 49 49 49 52 59 67 70 69 63 56 50 50 47 40 33 28 25 22 18 14 12 10 7 4 2 1 1 2 2 2 2
6 6 7 9 11 15 21 29 36 41 46 50 50 47 45 46 49 54 58 60 61 59 53 47 43 38 32 28 27 25 22 18 14 11 8 6 4 2 1 1 1 1 1 1
10 10 10 10 10 13 18 23 28 34 41 47 47 44 43 45 48 52 54 54 54 53 50 44 39 34 29 26 25 23 21 19 15 11 6 4 2 1 0 0 0 0 0 0
8 8 9 8 9 12 14 17 21 26 33 39 41 41 41 44 48 51 51 50 49 47 45 41 37 33 28 25 24 23 21 19 15 11 6 3 1 1 0 0 0 0 0 0
6 7 8 9 11 13 14 16 18 22 28 32 35 37 39 41 43 44 44 44 44 42 40 37 34 29 24 22 23 23 21 19 14 10 6 3 2 2 1 1 0 0 0 0
6 8 10 11 13 14 16 17 17 20 24 27 30 33 36 37 37 38 38 39 40 39 36 33 29 24 19 19 21 22 22 19 14 9 6 4 3 3 2 1 0 0 0 0
7 8 10 11 12 13 15 16 16 16 18 21 24 27 30 31 32 32 33 33 34 33 30 28 25 21 16 16 18 20 21 18 13 8 5 4 3 2 1 1 0 0 0 0
7 8 9 10 10 11 11 12 13 13 13 14 16 18 21 24 26 28 28 27 27 26 25 23 21 18 15 13 16 19 18 15 12 8 5 3 2 1 0 0 0 0 0 0
7 8 9 10 10 9 8 9 10 11 10 10 12 14 16 18 21 24 24 23 22 22 22 21 19 17 14 12 13 15 14 12 10 7 3 1 1 1 1 0 0 0 0 0
7 8 8 9 9 7 6 7 8 9 10 10 11 13 14 14 16 19 21 21 21 20 19 18 17 16 14 11 10 10 10 9 7 4 2 0 0 1 1 0 0 0 0 0
5 5 5 6 6 6 6 7 7 8 9 9 9 11 12 12 12 13 15 18 19 18 16 14 13 13 11 9 7 8 7 6 4 3 2 1 0 1 1 0 0 0 0 0
2 2 2 3 3 5 5 6 6 7 7 7 7 7 8 8 7 8 9 11 13 13 12 11 10 10 9 8 6 7 7 6 4 3 3 1 0 0 0 0 0 0 0 0
0 1 1 1 1 2 3 4 4 5 6 6 5 5 5 5 5 5 5 6 7 7 7 7 8 8 8 7 6 7 7 6 5 4 3 2 1 0 0 0 0 0 0 0
0 0 0 0 0 0 1 2 3 3 4 4 4 3 3 3 3 3 3 3 4 4 4 5 6 6 6 6 6 6 6 6 4 3 3 2 1 0 0 0 0 0 0 0
0 0 0 0 0 0 0 1 1 1 2 2 2 2 2 2 2 2 2 2 2 3 3 4 4 3 2 3 4 5 5 5 4 3 3 3 1 0 0 0 0 0 0 0
0 0 0 0 0 0 0 0 0 0 1 1 1 1 1 1 1 1 1 1 1 1 2 2 2 1 0 1 1 2 2 3 3 2 2 3 2 1 0 0 0 0 0 0
0 0 0 0 0 0 0 0 0 0 0 0 0 0 0 0 0 0 0 0 0 0 1 1 0 0 0 0 0 0 0 1 1 1 1 2 2 1 0 0 0 0 0 0
0 0 0 0 0 0 0 0 0 0 0 0 0 0 0 0 0 0 0 0 0 0 0 0 0 0 0 0 0 0 0 0 0 0 0 1 1 0 0 0 0 0 0 0
0 0 0 0 0 0 0 0 0 0 0 0 0 0 0 0 0 0 0 0 0 0 0 0 0 0 0 0 0 0 0 0 0 0 0 0 0 0 0 0 0 0 0 0

GEFSNGP_con_prob3kmehi_210.txt.gz
EHI
0 0 0 0 0 0 0 0 0 0 0 0 1 4 8 13 18 19 19 20 23 26 25 22 24 30 32 29 26 25 26 24 19 15 13 11 11 8 5 2 1 0 0 0
0 0 0 0 0 0 0 0 0 0 0 1 3 6 10 15 20 21 22 25 27 30 30 28 30 34 36 32 28 27 27 24 19 15 12 10 9 7 4 2 1 0 0 0
0 0 0 0 0 1 1 1 1 0 1 3 6 9 12 16 21 23 26 29 30 31 31 31 33 36 36 34 31 30 28 23 17 13 10 9 8 6 3 1 0 0 0 0
0 0 0 0 0 0 1 1 2 3 6 9 11 13 14 16 20 24 28 28 26 28 29 30 32 34 32 32 34 33 28 21 15 12 10 9 8 5 1 0 0 0 0 0
0 0 0 0 0 1 1 2 4 8 13 16 18 17 16 16 19 24 27 26 25 27 30 31 32 34 33 31 32 32 27 20 14 12 9 6 5 4 2 1 0 0 0 0
0 0 0 0 1 2 2 3 7 12 17 19 19 16 15 18 22 27 30 30 30 32 33 34 35 38 36 31 28 27 24 18 13 10 7 3 2 3 3 2 1 0 0 0
0 0 0 0 2 2 2 4 8 14 18 18 15 14 16 21 26 32 36 37 37 39 38 37 35 36 36 31 26 23 19 15 12 9 4 1 1 2 3 2 1 0 0 0
0 0 0 0 1 2 2 4 8 14 17 17 14 15 19 23 28 35 40 41 40 42 43 40 36 36 35 30 24 20 17 14 12 9 6 2 1 2 3 1 0 0 0 0
2 1 1 1 1 2 3 6 10 14 15 15 15 17 20 23 28 34 38 38 37 40 42 39 36 35 33 27 21 19 17 15 13 10 7 4 2 2 2 1 0 0 0 0
4 4 3 3 3 3 6 10 14 16 15 14 14 17 19 22 25 30 33 33 33 35 37 34 31 31 28 22 18 18 17 16 13 10 6 3 2 2 1 0 0 0 0 0
5 4 3 3 3 4 8 13 16 17 16 14 13 15 17 18 21 24 28 30 31 31 30 28 27 25 23 18 15 17 17 16 14 10 5 3 2 1 0 0 0 0 0 0
3 2 1 1 2 5 8 11 12 12 12 12 12 12 14 16 18 20 24 27 28 26 25 25 24 22 19 15 14 16 17 15 12 8 5 4 3 1 0 0 0 0 0 0
1 0 0 1 3 5 8 8 7 7 7 8 8 10 12 16 18 19 22 26 26 24 23 23 21 19 16 14 13 14 13 11 9 6 5 5 5 3 2 1 0 0 0 0
0 0 1 2 5 7 8 8 7 6 6 6 7 9 12 15 17 18 20 23 23 21 20 19 16 14 13 12 12 10 9 7 5 6 6 6 6 6 4 3 1 1 0 0
0 1 1 3 6 8 8 8 8 8 7 6 7 9 12 14 15 15 16 18 19 17 15 15 13 10 8 9 8 8 7 6 5 5 6 6 6 6 5 4 3 2 1 0
1 2 3 3 5 6 7 8 9 8 7 6 7 8 10 11 12 12 13 14 15 13 12 11 10 6 5 5 6 7 7 7 6 5 6 5 5 5 4 3 3 3 2 1
3 3 3 3 3 4 6 7 8 8 7 6 6 7 8 9 10 11 11 11 11 10 9 9 7 5 3 3 4 6 7 7 6 6 6 5 4 4 3 3 3 3 2 1
3 3 3 3 3 4 5 6 6 7 7 6 6 6 6 7 8 9 9 9 9 8 7 6 5 4 3 3 4 6 6 6 6 7 6 4 2 2 2 2 2 2 1 0
3 3 3 3 3 3 4 4 4 6 6 5 5 5 5 5 5 6 6 6 6 6 5 4 4 3 3 3 4 6 6 6 6 5 4 2 1 1 1 1 1 1 0 0
1 2 2 2 1 2 3 3 3 4 5 5 5 5 5 4 4 4 4 4 4 4 4 3 3 3 3 3 4 5 6 5 4 3 3 2 1 0 0 0 0 0 0 0
0 1 1 1 0 1 2 2 2 3 3 4 4 4 5 5 3 3 3 3 2 2 3 3 3 3 3 3 3 4 4 4 3 2 2 3 2 1 0 0 0 0 0 0
0 0 0 0 0 0 1 1 1 1 2 2 2 3 4 4 3 2 2 3 2 2 2 2 2 2 2 3 3 3 3 3 3 3 3 3 3 2 1 0 0 0 0 0
0 0 0 0 0 0 0 0 0 0 1 1 1 2 3 3 3 3 2 2 2 1 1 1 1 1 1 1 2 2 2 2 2 2 2 2 3 2 1 0 0 0 0 0
0 0 0 0 0 0 0 0 0 0 0 0 1 2 2 2 3 3 3 1 1 1 1 0 0 0 0 0 1 1 1 1 1 2 1 1 1 2 1 0 0 0 0 0
0 0 0 0 0 0 0 0 0 0 0 0 0 1 1 1 1 2 2 1 0 0 0 0 0 0 0 0 0 0 0 0 1 2 1 0 1 2 2 1 0 0 0 0
0 0 0 0 0 0 0 0 0 0 0 0 0 0 0 0 0 1 1 0 0 0 0 0 0 0 0 0 0 0 0 0 1 1 1 0 0 1 2 1 0 0 0 0
0 0 0 0 0 0 0 0 0 0 0 0 0 0 0 0 0 0 0 0 0 0 0 0 0 0 0 0 0 0 0 0 0 0 0 0 0 0 1 1 0 0 0 0

GEFSNGP_con_prob3kmehi_216.txt.gz
EHI
0 0 0 0 0 0 0 0 0 1 4 7 10 11 12 16 19 21 26 37 47 55 62 66 64 61 57 56 56 57 57 55 53 46 39 37 35 30 23 18 16 13 8 3
0 0 0 0 0 0 0 1 1 1 4 6 9 13 16 18 21 23 28 37 45 53 62 68 68 65 62 60 60 62 63 61 56 50 42 37 33 27 20 16 15 12 7 4
0 0 0 0 1 1 1 3 3 4 5 5 8 14 19 21 23 26 30 38 45 51 60 67 71 69 65 63 64 66 67 63 57 51 44 37 31 26 20 15 13 10 7 4
0 0 0 1 2 2 3 4 6 7 7 5 7 12 17 21 26 31 36 42 48 52 57 63 68 69 67 65 65 66 65 60 54 48 43 38 34 28 21 16 13 10 7 5
0 0 0 1 2 3 4 5 7 7 7 6 6 8 13 21 30 38 44 47 51 54 56 61 65 68 70 68 66 65 61 56 51 45 40 38 35 29 21 16 14 11 8 6
0 0 1 2 3 3 4 5 6 6 6 8 8 9 15 26 36 45 50 52 53 54 58 63 66 69 72 72 69 63 58 54 50 44 38 35 33 28 20 15 14 12 9 8
0 1 2 4 4 4 6 7 7 6 9 12 14 17 23 33 43 51 54 54 52 55 61 66 67 69 72 72 68 61 56 53 50 43 35 31 30 27 20 15 13 11 10 9
1 1 2 3 5 6 9 11 11 11 14 17 20 23 28 35 44 53 57 55 51 53 60 65 65 67 69 69 65 58 54 53 50 42 34 29 28 25 19 16 13 11 10 9
2 2 3 5 7 9 13 16 16 16 18 20 22 25 29 33 41 51 56 55 49 47 52 58 59 61 63 64 61 55 50 49 46 40 33 29 26 23 18 14 12 11 10 9
3 3 6 10 13 13 15 19 20 19 18 19 21 25 27 31 37 46 51 49 43 41 44 48 51 53 56 58 56 50 46 45 42 38 33 29 26 22 16 12 10 10 10 10
5 5 8 12 15 15 16 19 22 21 20 19 19 22 25 28 34 40 43 41 37 37 39 42 45 47 49 49 47 44 41 41 39 35 31 27 23 18 12 8 7 7 8 9
6 7 8 11 14 15 15 20 24 24 22 21 19 21 23 25 29 32 34 35 35 36 36 38 41 44 43 41 39 36 34 34 33 29 25 22 17 12 8 5 3 3 4 5
7 8 8 9 11 13 16 22 25 24 23 22 22 21 21 21 22 24 27 32 36 36 35 36 38 38 37 36 34 31 28 27 26 23 19 16 12 8 6 4 2 1 1 1
8 8 7 7 8 10 14 20 21 19 19 21 21 19 18 17 17 20 25 30 35 37 37 36 33 30 29 29 29 27 24 22 21 19 17 13 9 7 8 7 5 2 1 0
6 6 7 7 6 7 10 13 14 13 14 16 16 15 15 16 17 20 24 28 32 35 35 32 27 24 24 25 25 25 22 18 17 17 15 12 9 7 8 8 7 5 3 2
5 5 6 6 6 6 6 7 10 11 11 12 11 11 13 15 18 20 23 26 28 29 28 25 23 22 22 23 24 23 19 14 13 14 14 12 10 8 8 8 8 7 6 5
5 6 6 6 6 5 5 6 8 10 10 10 10 10 11 14 17 19 21 23 22 20 19 19 20 20 19 19 20 18 14 11 10 11 12 12 11 9 8 8 8 8 7 6
5 6 6 5 4 4 4 5 7 8 8 9 9 10 10 13 17 17 17 17 16 15 14 16 16 15 14 14 14 13 11 9 9 9 10 11 11 9 7 7 7 6 6 6
5 5 4 4 3 3 3 4 5 6 7 7 8 9 10 13 15 15 14 14 14 13 12 12 10 9 9 9 8 9 9 10 10 10 9 9 9 8 7 6 5 4 5 6
4 4 3 3 3 3 3 3 4 5 6 6 6 7 9 11 12 11 11 12 13 12 11 10 8 6 6 4 4 7 9 10 11 10 8 8 9 8 7 6 4 3 4 5
3 3 3 3 3 3 3 3 3 4 4 5 5 5 6 8 7 7 8 9 10 9 8 7 7 6 5 4 5 7 9 10 10 9 8 8 8 7 6 5 3 1 1 2
3 3 3 3 3 3 3 4 4 4 4 5 5 5 5 5 4 4 5 7 7 5 4 5 5 5 5 6 7 9 9 9 9 8 7 6 6 6 6 5 2 1 1 1
3 3 3 3 3 3 4 5 6 6 6 6 5 5 5 4 4 4 4 5 4 2 3 3 3 2 3 5 7 8 8 8 8 7 6 6 6 6 6 5 4 3 3 2
3 3 3 3 3 3 4 4 5 5 5 4 4 5 6 6 5 5 3 2 1 1 2 2 1 0 1 3 5 5 5 5 6 6 6 6 6 6 6 7 7 6 4 4
3 3 3 3 3 3 2 2 2 3 3 3 3 3 4 5 5 4 3 2 0 1 1 1 0 1 2 3 3 3 4 4 4 4 4 4 4 4 5 6 6 6 5 4
1 2 3 3 2 1 1 0 0 1 1 1 2 1 2 2 2 2 2 1 0 0 0 0 0 1 3 3 3 3 3 3 3 3 3 3 3 3 3 4 4 5 4 4
0 1 2 2 1 0 0 0 0 0 0 0 1 0 1 1 1 1 1 0 0 0 0 0 1 2 3 3 3 3 3 3 3 3 2 2 3 3 3 3 3 2 2 3

GEFSNGP_con_prob3kmehi_222.txt.gz
EHI
0 0 0 0 0 0 0 0 1 3 7 10 13 16 19 24 30 36 43 51 62 74 84 86 81 74 71 70 72 76 79 80 80 76 71 65 57 53 52 50 43 35 28 23
0 0 0 0 0 0 1 1 1 3 6 10 14 18 24 30 35 39 44 52 63 75 85 88 83 76 74 74 75 76 77 78 78 75 67 60 53 50 49 46 41 35 29 24
0 0 0 0 1 1 2 3 3 5 6 10 14 21 32 40 43 44 49 58 66 75 85 88 83 79 78 78 77 76 76 77 77 73 64 55 49 46 44 42 38 35 30 25
0 0 0 1 2 3 3 4 5 6 7 10 14 21 33 43 45 48 55 64 68 70 76 80 79 79 79 79 78 79 79 78 77 74 65 54 46 43 42 38 34 33 30 27
0 0 1 2 3 3 4 5 6 7 9 11 13 19 30 39 44 50 59 65 65 63 65 70 73 77 80 81 81 82 80 78 76 75 67 55 46 42 39 35 32 30 28 27
0 0 1 3 4 3 4 7 9 11 12 15 17 22 31 39 42 49 57 61 59 58 62 68 72 76 79 80 80 80 77 75 75 75 66 54 46 41 36 32 29 27 26 25
0 1 2 4 5 8 13 18 19 17 17 20 25 31 36 38 40 46 52 54 55 58 65 71 73 74 75 74 74 74 72 70 71 69 62 52 46 41 36 31 28 26 25 24
1 3 7 12 14 19 27 31 27 22 20 22 27 34 37 37 39 44 47 50 54 60 66 69 70 70 70 70 70 69 68 65 63 60 56 50 45 42 40 34 28 26 25 25
4 6 14 19 22 26 30 30 27 23 20 20 25 32 37 40 43 45 46 48 52 57 62 66 67 66 67 69 69 67 64 60 55 54 54 50 45 44 42 35 29 27 26 25
8 10 14 17 19 20 21 20 19 19 19 20 24 29 35 41 44 45 46 47 49 53 58 64 65 64 65 68 68 65 59 54 51 51 52 50 46 43 39 33 29 27 26 25
10 11 12 12 12 13 15 16 16 18 21 22 23 26 33 39 41 43 43 44 47 51 56 59 61 61 61 63 64 62 56 50 47 46 46 47 44 38 32 27 24 23 22 22
10 12 14 13 11 12 15 17 18 21 24 26 26 27 30 34 37 39 38 39 42 45 49 51 52 54 55 56 58 58 53 48 43 40 40 40 38 32 25 18 13 12 12 13
11 13 15 13 11 12 16 19 20 22 25 28 30 30 29 30 33 33 32 32 33 35 40 43 44 46 49 50 51 51 48 42 36 34 34 32 30 27 21 13 9 7 5 4
12 13 13 12 11 13 17 20 21 22 24 27 30 29 27 26 27 27 28 27 27 29 33 37 39 41 42 42 43 42 39 33 30 28 28 27 25 22 18 15 13 11 6 1
10 12 13 11 12 14 17 19 20 22 22 24 26 25 23 22 22 23 24 24 25 27 29 33 35 37 35 33 34 34 30 27 24 23 23 24 22 18 15 13 13 12 8 4
6 9 10 10 11 13 15 16 18 19 19 20 20 19 18 18 20 20 20 22 25 25 26 29 33 34 31 28 27 26 24 21 18 18 20 20 18 16 13 10 10 10 8 6
3 5 6 6 8 11 13 14 15 17 17 16 14 13 13 13 14 15 15 18 22 23 22 25 30 33 29 26 23 21 20 17 14 14 17 17 16 14 12 9 8 9 8 6
3 4 4 4 7 10 12 13 14 15 15 13 11 10 11 10 10 10 10 13 16 17 17 18 22 24 23 22 20 19 18 17 15 15 16 16 14 12 9 7 6 6 6 5
3 4 5 5 6 8 10 11 11 12 13 12 10 9 9 9 9 10 10 10 11 11 12 12 12 12 14 15 15 16 15 14 15 15 15 14 12 9 6 4 3 3 4 4
3 4 5 5 6 7 8 7 7 7 8 9 8 8 8 8 9 10 10 10 9 8 8 8 7 8 10 10 11 10 10 10 12 13 12 9 8 7 6 4 2 2 3 4
4 5 6 7 6 6 6 5 4 5 5 5 5 5 5 6 6 7 9 8 6 6 6 6 7 9 10 10 9 9 8 8 9 9 8 6 6 7 6 5 4 3 4 4
5 7 8 7 6 6 6 5 4 4 4 3 3 3 3 4 4 5 6 5 3 3 4 4 6 8 9 9 9 9 8 7 7 7 6 6 6 6 6 6 5 5 5 5
6 6 6 5 4 4 4 4 3 3 3 3 3 3 3 3 3 3 2 2 1 1 1 2 4 5 7 9 9 8 7 6 5 5 6 7 8 8 7 7 6 6 6 6
5 5 4 3 3 3 3 3 3 3 3 3 3 3 3 3 2 2 1 1 1 0 1 2 2 2 4 6 7 6 6 5 4 4 6 7 8 7 7 7 7 6 6 6
4 4 3 3 3 3 3 3 3 4 4 3 3 3 2 1 1 2 2 2 1 0 1 2 2 1 1 3 4 4 4 4 4 4 4 5 4 4 5 5 5 6 6 6
3 3 3 3 3 3 2 1 2 4 4 3 2 1 1 0 1 2 2 1 1 1 1 2 2 1 0 2 3 3 3 3 4 3 3 3 2 2 3 3 4 4 4 4
3 3 3 3 3 2 1 0 1 3 4 2 1 0 0 1 1 1 1 1 2 2 2 3 2 1 1 2 3 3 3 3 3 3 3 3 2 2 3 3 3 3 3 3

GEFSNGP_con_prob3kmehi_228.txt.gz
EHI
0 0 0 0 0 1 1 0 0 1 2 7 13 17 18 21 24 28 31 31 31 32 33 34 40 47 50 53 58 62 64 61 55 48 43 39 33 25 17 14 14 11 6 4
0 0 0 0 1 2 2 1 2 2 4 10 17 21 24 27 31 32 33 33 32 33 34 36 41 47 50 53 58 63 66 64 57 51 45 39 33 28 22 18 15 12 7 5
0 0 0 0 1 2 4 5 5 6 10 18 23 24 28 32 36 38 38 38 35 33 35 38 41 46 50 54 58 63 65 65 60 53 46 39 34 32 27 21 17 13 8 5
0 0 0 1 1 2 5 8 8 11 19 25 25 25 27 31 35 37 39 40 37 34 35 38 40 44 49 54 58 60 60 61 59 53 44 38 35 34 29 23 21 16 10 6
0 0 0 1 2 1 3 7 10 15 22 23 23 24 25 26 28 30 34 36 35 33 35 38 41 44 48 53 56 56 54 54 53 49 43 38 35 32 27 24 24 20 14 9
0 0 0 1 2 1 2 6 11 16 18 17 16 17 19 21 24 27 30 31 32 33 34 38 42 45 48 52 54 54 50 49 48 44 39 36 33 28 24 23 24 23 18 13
0 0 0 1 2 2 3 7 12 15 14 13 13 14 17 20 24 29 31 31 34 37 37 39 42 45 48 50 50 50 48 46 44 40 35 31 29 25 21 21 23 22 19 14
0 0 0 1 3 4 5 9 13 14 13 15 17 19 22 25 28 30 32 34 37 40 41 42 43 45 46 47 46 47 47 46 43 38 33 28 26 23 19 19 21 20 17 15
1 0 0 1 3 5 7 10 14 15 15 18 23 26 29 31 31 32 34 36 38 40 41 43 44 45 45 44 44 46 48 47 42 37 33 27 25 22 18 17 18 17 16 16
2 1 1 2 4 6 7 10 15 16 16 20 26 30 31 31 30 31 33 34 36 37 37 38 40 41 40 40 41 44 45 43 40 36 31 26 24 21 17 15 15 15 15 15
3 3 4 4 4 6 6 7 13 15 15 17 22 26 28 28 26 25 27 30 31 31 31 31 31 31 29 30 35 38 38 37 36 35 31 25 21 18 14 11 10 10 10 11
3 3 4 4 4 4 5 6 10 13 13 15 18 21 23 24 22 20 20 23 25 24 24 23 22 20 19 21 26 31 32 31 30 30 28 24 20 14 10 6 5 4 5 5
2 2 2 2 3 5 7 8 9 12 14 16 18 19 21 20 18 17 16 17 19 19 18 18 16 15 15 16 19 23 25 25 24 23 23 21 17 12 8 5 3 2 2 2
1 1 1 2 4 6 8 8 9 12 16 17 18 19 19 17 16 16 16 16 18 17 15 15 14 12 11 12 13 16 19 20 20 20 20 19 16 12 9 7 5 2 1 1
1 1 1 2 4 6 7 8 9 12 15 16 17 17 17 16 16 16 17 17 17 16 15 13 12 9 7 8 10 12 15 17 18 20 19 17 16 13 10 8 6 4 2 1
2 2 2 4 6 7 7 8 10 11 12 13 13 15 16 16 16 16 17 16 16 14 12 10 8 6 6 7 9 11 12 14 15 17 18 17 16 14 11 8 6 6 4 2
2 3 4 5 7 7 7 9 10 11 10 10 10 11 13 13 13 14 15 14 13 11 8 6 5 4 5 7 8 9 11 12 13 14 15 16 16 15 12 8 6 6 5 2
1 1 3 5 6 6 6 8 9 9 8 8 8 8 9 9 10 10 11 11 10 8 6 4 3 3 4 6 7 9 12 12 11 11 12 13 14 14 12 9 6 5 4 2
0 1 3 5 6 5 5 5 6 6 6 6 6 6 6 6 6 6 6 6 5 4 3 3 2 2 3 4 5 9 12 11 9 9 10 11 12 13 12 10 7 5 4 2
0 1 3 5 5 4 3 3 4 4 4 4 4 4 4 4 3 3 2 2 1 1 1 1 1 1 1 1 3 7 10 9 7 7 8 9 10 11 12 11 9 6 4 1
0 1 3 4 4 3 2 3 3 3 3 3 3 3 3 2 1 1 0 0 0 0 1 1 1 1 1 0 2 6 8 8 7 7 9 9 9 10 11 11 10 7 3 1
0 0 2 3 3 2 2 2 3 3 3 3 3 2 1 1 0 0 0 0 0 0 1 2 2 2 2 1 3 6 8 8 8 8 9 9 8 8 8 9 8 6 3 1
1 0 1 2 2 2 2 3 3 3 3 3 2 1 0 0 0 0 0 0 0 0 1 1 1 2 2 2 3 6 7 7 8 7 7 7 7 7 6 7 6 5 3 1
2 2 2 2 2 2 3 3 3 3 3 2 1 0 0 0 0 0 0 0 0 0 0 0 0 1 1 2 4 5 5 6 7 7 6 6 6 6 6 6 6 5 3 1
3 3 3 3 2 3 3 3 3 2 1 1 0 0 0 0 0 0 0 0 0 0 0 0 0 0 0 1 2 2 2 3 5 5 6 6 6 6 6 6 5 4 3 1
3 3 3 3 3 3 3 2 1 1 0 0 0 0 0 0 0 0 0 0 0 0 0 0 0 0 0 0 1 1 0 1 2 3 4 4 5 6 6 5 4 3 2 1
3 3 3 3 3 3 2 1 0 0 0 0 0 0 0 0 0 0 0 0 0 0 0 0 0 0 0 0 0 0 0 0 1 2 3 4 4 4 4 4 4 3 1 0

GEFSNGP_con_prob3kmehi_234.txt.gz
EHI
0 0 0 0 1 2 2 2 3 5 3 1 1 4 7 7 6 7 8 8 7 6 6 7 8 10 13 16 17 23 29 30 27 25 20 17 17 14 9 6 4 3 3 3
0 0 0 0 1 3 4 4 4 4 2 1 1 5 9 10 10 10 10 9 8 7 7 8 10 12 14 15 19 26 32 32 29 25 21 17 16 14 10 7 5 4 4 4
0 0 0 0 0 2 3 3 3 2 2 1 3 8 12 14 16 14 12 10 9 8 9 9 12 16 17 18 22 29 34 33 29 25 21 17 15 13 11 9 7 7 5 4
0 0 0 0 0 0 1 3 3 3 4 6 9 13 15 16 18 16 13 11 10 9 10 9 11 16 20 23 26 31 34 33 30 26 21 18 16 13 11 11 10 9 7 7
0 0 0 0 0 0 1 3 3 3 6 12 17 18 16 14 16 17 15 13 12 13 12 10 11 15 22 26 29 32 35 34 31 28 23 20 19 16 13 13 12 10 9 8
0 0 0 0 0 0 1 2 1 2 7 13 18 18 15 13 15 17 15 13 13 14 14 14 15 19 25 30 32 35 36 34 31 29 26 23 21 19 17 15 12 9 7 6
0 0 0 0 0 0 0 0 0 2 7 11 13 12 12 13 15 15 13 11 11 13 15 18 20 24 28 32 33 34 34 32 29 28 27 24 21 19 19 17 14 9 5 3
0 0 0 0 0 0 0 0 1 5 9 11 10 8 9 13 16 15 10 8 9 12 16 19 21 23 26 29 31 30 29 27 25 24 24 24 21 18 18 18 15 11 6 4
0 0 0 0 0 1 1 1 3 7 10 10 9 9 10 12 14 13 10 9 9 10 15 18 19 20 22 24 26 26 24 22 22 22 22 22 21 18 18 18 16 13 10 8
0 0 0 1 1 2 2 1 3 7 9 9 9 9 10 11 11 11 11 12 10 9 11 15 17 18 18 18 20 21 22 21 20 20 21 21 20 18 17 17 16 13 11 11
0 0 0 1 2 2 2 3 4 6 8 8 7 8 10 10 10 11 13 13 12 10 10 13 15 15 14 13 14 17 19 19 19 19 19 19 17 14 13 13 12 10 9 8
0 0 1 1 2 3 3 4 4 5 6 6 7 9 11 10 9 11 14 13 11 9 9 11 13 13 11 10 10 12 14 17 17 17 17 17 14 10 7 5 5 4 4 4
0 1 2 2 3 4 4 4 5 5 5 5 7 9 10 9 8 10 13 12 9 8 8 10 11 11 10 10 9 9 10 13 15 15 15 15 14 12 8 4 2 1 1 1
1 2 3 3 3 4 4 4 5 6 5 6 8 9 9 8 8 10 10 9 8 8 9 9 9 9 9 9 8 6 6 8 11 12 13 14 15 15 13 9 5 3 1 1
2 3 3 3 3 3 3 3 4 6 7 8 9 9 9 9 9 9 9 8 8 9 10 9 8 7 6 6 5 4 3 4 7 10 12 12 14 15 15 11 7 5 4 3
3 3 3 3 3 3 3 3 4 6 8 8 8 9 10 10 9 9 9 8 9 10 11 10 8 6 5 4 4 3 3 2 4 7 10 11 13 14 14 10 7 6 6 6
3 3 3 3 3 3 4 4 4 5 6 7 7 8 9 10 10 9 8 8 10 11 11 10 8 6 5 4 3 3 3 2 2 5 8 11 13 14 13 10 8 7 6 6
2 3 4 4 4 4 4 5 5 5 5 6 8 8 9 8 7 6 6 6 8 10 9 7 6 5 3 2 2 3 3 3 3 4 7 9 11 12 13 11 9 7 6 6
3 4 5 5 4 4 4 4 5 6 6 6 7 7 7 6 5 4 4 4 4 5 4 3 2 2 2 1 2 3 3 3 3 3 6 8 8 9 10 10 10 8 5 4
4 4 4 3 3 3 3 3 3 5 6 6 6 6 5 4 3 3 3 2 1 1 1 1 0 0 0 1 1 2 2 2 2 2 3 6 6 7 7 8 8 8 6 5
2 2 2 1 1 1 2 2 2 3 3 3 3 3 3 2 1 1 1 1 0 0 0 0 0 0 0 0 0 1 1 1 1 0 1 3 5 6 6 7 8 9 8 7
1 1 1 0 0 0 1 1 0 1 1 1 1 1 1 0 0 0 0 0 0 0 0 0 0 0 0 0 0 0 0 0 0 0 0 1 3 4 6 7 9 9 9 9
0 0 0 0 0 0 0 0 0 0 0 0 0 0 0 0 0 0 0 0 0 0 0 0 0 0 0 0 0 0 0 0 0 0 0 0 1 3 5 7 9 9 9 10
0 0 0 0 0 0 0 0 0 0 0 0 0 0 0 0 0 0 0 0 0 0 0 0 0 0 0 0 0 0 0 0 0 0 0 0 1 2 5 7 8 8 8 9
0 0 0 0 0 0 0 0 0 0 0 0 0 0 0 0 0 0 0 0 0 0 0 0 0 0 0 0 0 0 0 0 0 0 0 0 0 1 4 6 6 6 7 7
1 1 1 0 0 0 0 0 0 0 0 0 0 0 0 0 0 0 0 0 0 0 0 0 0 0 0 0 0 0 0 0 0 0 0 0 0 1 2 4 4 5 5 6
3 2 1 0 0 0 0 0 0 0 0 0 0 0 0 0 0 0 0 0 0 0 0 0 0 0 0 0 0 0 0 0 0 0 0 0 0 0 1 3 3 4 5 6

GEFSNGP_con_prob3kmehi_240.txt.gz
EHI
0 0 0 0 0 0 1 1 1 3 4 4 6 10 18 23 24 25 28 32 38 42 45 48 52 53 52 49 47 45 46 47 49 50 51 52 50 46 44 40 35 33 32 29
0 0 0 0 1 1 2 1 2 3 4 5 7 12 21 25 25 27 32 37 41 44 46 47 48 51 54 55 52 51 50 50 50 50 51 50 48 44 43 42 37 34 34 32
0 0 0 0 1 2 2 2 2 4 5 6 9 14 21 26 28 32 37 41 42 45 45 43 41 44 49 52 52 53 53 51 49 49 50 48 45 43 43 43 39 37 36 35
0 0 0 0 1 1 1 2 3 5 7 9 10 13 19 26 32 36 39 40 41 40 39 37 36 36 39 43 47 52 54 51 49 49 50 47 44 42 41 40 37 35 34 33
0 0 0 0 1 1 2 4 5 7 9 11 11 12 18 26 31 35 37 38 38 35 32 32 32 34 37 43 48 52 52 51 51 50 49 45 41 39 37 35 33 31 30 29
0 0 0 1 1 2 3 6 8 10 12 14 15 15 20 25 28 31 34 36 36 35 32 31 32 36 41 47 51 51 48 48 49 48 45 42 39 36 34 32 30 28 26 25
0 0 1 1 1 3 5 9 12 13 15 18 22 23 25 26 27 29 31 33 35 36 35 33 34 37 41 45 47 47 43 42 43 41 37 37 36 35 33 30 27 26 24 22
0 0 1 1 3 7 11 13 15 15 16 21 26 28 27 25 26 28 29 30 32 33 34 33 34 37 38 38 39 39 38 38 36 33 31 31 33 32 30 27 23 22 22 20
0 1 2 4 8 12 13 14 15 15 17 21 25 27 27 26 27 28 28 28 29 30 29 28 29 33 34 32 30 32 35 34 31 28 28 29 31 31 28 24 20 18 18 17
1 2 5 10 13 14 12 10 12 13 14 18 22 26 28 28 27 27 27 27 27 28 26 22 22 26 29 27 25 27 30 31 29 27 27 29 31 30 26 21 18 16 16 16
3 4 8 11 14 13 11 9 10 11 11 14 18 23 25 25 23 22 24 24 25 25 22 18 17 19 22 23 24 25 25 26 25 24 25 27 27 24 20 17 14 13 15 16
5 6 8 9 10 10 9 9 10 11 12 14 16 19 19 18 16 16 19 21 20 20 19 15 14 16 19 22 26 26 22 20 20 20 20 23 23 19 13 10 7 7 9 11
5 5 5 6 6 6 5 5 8 11 14 16 15 14 12 11 12 14 17 17 16 16 15 14 13 15 18 22 25 25 20 17 17 17 17 19 21 18 13 9 5 3 3 4
3 3 2 3 5 5 3 4 7 10 13 13 12 10 9 10 13 15 16 16 14 14 14 13 13 15 17 21 23 21 17 15 15 15 15 16 18 18 16 13 10 7 3 1
2 2 2 3 5 5 5 6 8 8 8 8 8 9 10 13 15 15 15 15 14 13 13 13 14 15 17 19 20 18 14 12 13 14 13 13 14 15 15 14 13 11 9 6
3 3 3 4 5 6 6 7 7 6 5 6 8 10 13 14 14 14 14 14 13 13 13 14 14 14 14 15 16 14 11 8 8 10 12 12 12 13 12 11 10 11 12 13
4 3 3 4 6 6 6 6 5 5 4 6 8 11 13 14 13 12 12 12 12 12 12 13 13 12 11 11 11 11 9 7 6 8 10 11 11 10 9 8 7 8 11 14
3 3 3 4 5 5 4 5 5 5 5 7 8 10 12 13 12 11 10 10 10 10 10 10 10 9 8 8 8 9 8 7 7 7 8 8 8 8 7 6 6 7 8 10
3 3 3 3 4 4 4 4 5 6 6 7 8 10 11 12 11 9 8 7 7 7 7 7 7 7 6 5 6 6 7 7 7 7 7 6 6 6 5 4 4 5 6 7
3 3 3 3 3 4 4 4 5 6 7 8 9 10 10 10 9 8 7 6 6 6 6 5 5 5 5 5 5 5 6 6 6 6 6 6 6 5 4 3 3 4 5 6
3 3 3 4 3 4 4 5 5 6 7 8 8 8 9 9 8 7 6 6 6 5 4 4 4 3 4 4 4 5 6 6 6 6 5 4 4 4 3 3 3 3 4 5
4 4 4 5 5 5 5 5 4 4 5 6 6 7 8 8 7 6 5 5 4 3 3 2 2 1 1 2 3 4 4 4 3 3 3 3 3 3 3 3 3 3 4 6
5 5 5 5 5 5 4 4 3 3 4 3 3 4 5 5 4 3 3 2 1 1 1 1 1 0 0 1 2 1 1 1 1 1 1 2 2 2 2 2 2 3 4 4
4 4 4 3 3 3 3 3 3 2 2 1 1 1 1 1 1 1 1 0 0 0 0 0 0 0 0 1 1 0 0 0 0 0 0 1 1 1 1 1 1 1 1 2
4 3 3 2 2 2 2 2 1 1 1 0 0 0 0 0 0 0 0 0 0 0 0 0 0 0 0 0 0 0 0 0 0 0 0 0 0 0 0 0 0 0 0 0
5 4 4 3 2 1 1 1 0 0 0 0 0 0 0 0 0 0 0 0 0 0 0 0 0 0 0 0 0 0 0 0 0 0 0 0 0 0 0 0 0 0 0 0
5 5 4 3 2 0 0 0 0 0 0 0 0 0 0 0 0 0 0 0 0 0 0 0 0 0 0 0 0 0 0 0 0 0 0 0 0 0 0 0 1 1 1 0

GEFSNGP_con_prob3kmehi_246.txt.gz
EHI
0 0 0 0 0 0 0 0 0 0 1 6 13 20 25 32 41 49 51 52 54 55 59 68 75 76 73 71 72 75 77 78 81 81 77 72 68 65 63 58 51 46 44 42
0 0 0 0 0 0 0 0 0 1 3 7 15 23 28 33 40 47 51 53 55 57 60 67 73 75 74 72 73 74 76 78 80 79 75 73 70 67 65 62 56 51 47 45
0 0 0 0 0 0 0 0 1 3 5 9 17 25 31 36 39 43 49 55 58 59 61 63 66 70 71 72 73 75 75 77 78 76 73 72 71 68 66 64 62 59 54 50
0 0 0 0 0 0 1 2 4 7 9 11 17 25 31 37 40 42 49 57 59 58 57 57 59 63 68 70 73 74 72 72 72 69 67 68 68 65 63 62 63 62 58 54
0 0 0 0 0 0 1 3 6 10 12 14 17 23 29 36 40 43 50 57 58 54 52 52 53 58 65 70 70 68 65 64 63 61 61 63 63 62 61 59 58 57 54 51
0 0 0 0 0 0 2 6 10 14 17 18 21 24 29 34 37 41 48 54 55 52 50 51 51 56 63 68 66 61 57 56 56 56 55 57 59 59 58 57 53 49 46 44
0 0 0 1 3 4 10 16 19 21 23 26 28 29 31 34 36 38 44 50 52 52 52 54 54 57 62 63 58 53 51 49 50 50 48 50 53 56 56 54 49 45 43 41
2 3 5 8 10 15 22 27 28 27 27 29 30 29 32 35 35 35 40 45 49 53 55 57 58 59 60 58 52 48 46 44 44 43 40 40 46 51 54 52 45 41 39 37
8 10 14 16 20 24 27 28 29 27 25 25 25 25 29 35 36 36 38 41 44 50 55 58 60 58 55 51 49 46 43 40 38 36 32 32 37 43 47 46 40 35 33 31
13 15 18 19 22 23 23 23 24 23 21 19 19 22 28 35 38 40 41 41 43 47 54 58 57 54 50 47 46 44 40 37 35 31 28 28 32 34 36 36 34 32 31 31
18 18 17 16 16 17 18 19 19 17 16 17 19 22 28 36 42 44 45 44 44 45 49 52 51 48 44 42 40 38 36 35 32 27 25 27 28 26 24 23 23 24 27 29
21 19 17 15 13 14 16 17 15 14 15 18 21 24 31 39 44 45 44 42 41 41 40 41 41 40 38 36 34 32 32 33 30 24 23 25 25 21 15 12 10 11 14 19
20 19 17 15 13 14 17 16 14 14 16 19 21 24 30 36 39 39 37 33 32 32 30 29 30 32 32 30 28 28 29 30 27 24 23 24 25 23 16 10 6 4 4 6
15 15 15 13 12 14 15 14 11 11 14 16 18 20 25 30 31 30 29 26 24 23 24 24 25 28 28 26 25 25 26 27 26 25 23 24 25 25 21 16 11 7 4 2
9 10 11 10 9 10 11 9 8 7 9 11 13 15 21 26 28 29 28 23 20 21 23 24 25 27 25 22 21 22 23 24 23 23 22 21 22 22 21 17 13 10 7 5
4 6 8 7 6 6 6 6 6 5 6 9 11 15 22 27 29 29 26 22 20 21 23 25 25 24 21 18 17 18 18 17 16 17 17 17 17 18 18 16 13 11 9 6
1 2 5 6 4 4 4 5 5 5 7 10 13 19 24 27 28 26 22 18 17 18 20 23 24 22 18 16 15 14 12 10 9 10 11 12 12 14 16 16 14 13 10 7
0 1 3 5 4 4 4 5 6 8 9 13 17 21 22 22 21 21 18 14 13 14 15 18 19 17 15 13 12 10 8 7 7 7 8 9 9 11 12 13 13 13 10 7
0 1 2 4 4 5 6 7 8 10 13 16 20 21 18 16 15 16 15 13 12 12 13 14 13 12 11 10 9 8 7 6 7 8 8 8 8 9 10 10 11 10 9 8
1 2 3 5 6 7 8 8 9 11 15 19 20 18 14 12 11 12 12 13 14 13 12 11 11 10 9 7 7 7 7 7 8 9 9 8 8 8 9 9 9 8 7 7
4 4 5 7 8 9 9 9 10 12 14 16 15 12 10 9 9 9 9 11 14 12 9 9 10 10 8 6 6 6 6 7 8 9 9 9 9 8 7 7 7 5 5 5
6 6 7 8 8 10 11 10 11 12 12 12 10 8 7 7 7 7 6 8 9 8 6 5 7 7 5 5 6 6 6 7 7 8 8 7 7 6 5 4 4 4 3 3
8 9 9 9 10 11 12 11 11 11 11 9 7 6 6 5 5 4 4 4 3 3 3 3 2 2 2 3 4 5 5 5 5 5 3 3 3 2 2 2 2 2 2 2
11 11 11 11 12 12 11 10 10 10 9 7 6 5 4 4 3 2 1 1 1 0 1 1 0 0 0 1 1 2 2 2 2 1 0 0 0 0 0 1 1 1 1 1
13 13 12 12 12 11 10 9 9 8 7 5 4 4 3 3 2 1 0 0 0 0 0 0 0 0 0 0 0 0 0 0 0 0 0 0 0 0 0 0 0 0 0 0
13 12 11 10 9 8 8 7 6 5 5 5 4 3 2 1 1 0 0 0 0 0 0 0 0 0 0 0 0 0 0 0 0 0 0 0 0 0 0 0 0 0 0 0
11 10 8 8 7 6 7 6 4 2 3 4 3 2 1 0 0 0 0 0 0 0 0 0 0 0 0 0 0 0 0 0 0 0 0 0 0 0 0 0 0 0 0 0